User: anonymous   Login
Location: Bittkow
(50.3000°N, 19.0000°E)
Time: 23:55:01
(UTC+00:00)
Language:

Intercosmos 25 - Orbit

View from above orbital plane
View from above orbital plane
View from above satellite
View from above satellite

Ground track
Ground track

The orbit data is extracted from the following two-line orbital elements,

1 21819U 91086A   20332.45961181 +.00000880 +00000-0 +18183-3 0  9990
2 21819 082.5981 028.6964 1514424 284.6487 059.1903 12.05192084263922
Epoch (UTC): 27 November 2020 11:01:50
Eccentricity: 0.1514424
inclination: 82.5981°
perigee height: 441 km
apogee height: 2874 km
right ascension of ascending node: 28.6964°
argument of perigee: 284.6487°
revolutions per day: 12.05192084
mean anomaly at epoch: 59.1903°
orbit number at epoch: 26392

The dashed part of the orbit path shows where the satellite is in the earth's shadow,  

DLR